Grants-Milan, NM

1:55 PM MDT on October 17, 2017 (GMT -0600)
Grants-Milan Municipal

Weather History for KGNT - February, 2013

Change the Weather History Date:

Monday, February 11, 2013

  Actual Average Record
Temperature  
Mean Temperature 25 °F -  
Max Temperature 36 °F 52 °F 70 °F (1962)
Min Temperature 14 °F 17 °F -6 °F (1972)
Degree Days  
Heating Degree Days 40    
Moisture  
Dew Point 19 °F    
Average Humidity 80    
Maximum Humidity 94    
Minimum Humidity 38    
Precipitation  
Precipitation 0.00 in - - ()
Sea Level Pressure  
Sea Level Pressure 29.96 in    
Wind  
Wind Speed 4 mph (West)    
Max Wind Speed 15 mph    
Max Gust Speed 24 mph    
Visibility 9 miles    
Events Snow    
Averages and records for this station are not official NWS values.
T = Trace of Precipitation, MM = Missing Value Source: NWS Daily Summary

Daily Weather History Graph

Daily Weather History Graph

Search for Another Location

Airport or City:

Trip Planner

Search our weather history database for the weather conditions in past years. The results will help you decide how hot, cold, wet, or windy it might be!

Date:

Astronomy

Feb. 11, 2013 Rise Set
Actual Time 7:01 AM MST 5:50 PM MST
Civil Twilight 6:35 AM MST 6:16 PM MST
Nautical Twilight 6:05 AM MST 6:46 PM MST
Astronomical Twilight 5:36 AM MST 7:16 PM MST
Moon 7:33 AM MST (2/11) 7:43 PM MST (2/11)
Length of Visible Light 11h 41m
Length of Day
10h 48m
Waxing Crescent, 3% of the Moon is Illuminated
Feb 11
Waxing Crescent
Feb 17
First Quarter
Feb 25
Full
Mar 4
Last Quarter
Mar 11
New

Hourly Weather History & Observations

Time (MST) Temp. Windchill Dew Point Humidity Pressure Visibility Wind Dir Wind Speed Gust Speed Precip Events Conditions
12:15 AM 20.3 °F - 17.2 °F 88% 29.94 in 10.0 mi Calm Calm - N/A   Scattered Clouds
12:35 AM 19.9 °F - 17.1 °F 89% 29.94 in 10.0 mi Calm Calm - N/A   Mostly Cloudy
12:55 AM 16.7 °F - 14.5 °F 91% 29.95 in 10.0 mi Calm Calm - N/A   Mostly Cloudy
1:15 AM 17.8 °F - 15.3 °F 90% 29.95 in 10.0 mi Calm Calm - N/A   Scattered Clouds
1:35 AM 20.7 °F 13.0 °F 17.4 °F 87% 29.95 in 10.0 mi SSW 5.8 mph - N/A   Scattered Clouds
1:55 AM 21.4 °F - 17.6 °F 85% 29.95 in 10.0 mi Calm Calm - N/A   Mostly Cloudy
2:15 AM 19.2 °F 12.5 °F 16.7 °F 90% 29.95 in 10.0 mi SSE 4.6 mph - N/A   Mostly Cloudy
2:35 AM 21.9 °F - 18.1 °F 85% 29.96 in 10.0 mi Calm Calm - N/A   Mostly Cloudy
2:55 AM 18.9 °F - 14.9 °F 85% 29.96 in 10.0 mi Calm Calm - N/A   Mostly Cloudy
3:15 AM 18.1 °F - 14.4 °F 85% 29.95 in 10.0 mi Calm Calm - N/A   Scattered Clouds
3:35 AM 18.3 °F 13.1 °F 14.7 °F 86% 29.95 in 10.0 mi SSW 3.5 mph - N/A   Clear
3:55 AM 19.0 °F 10.0 °F 16.7 °F 91% 29.95 in 10.0 mi SSW 6.9 mph - N/A   Mostly Cloudy
4:15 AM 20.1 °F 12.3 °F 18.0 °F 91% 29.95 in 10.0 mi South 5.8 mph - N/A   Mostly Cloudy
4:35 AM 20.5 °F 12.8 °F 18.0 °F 90% 29.95 in 10.0 mi SSE 5.8 mph - N/A   Scattered Clouds
5:15 AM 19.2 °F - 16.5 °F 89% 29.95 in 10.0 mi Calm Calm - N/A   Scattered Clouds
5:35 AM 19.2 °F 14.1 °F 16.3 °F 89% 29.95 in 10.0 mi South 3.5 mph - N/A   Mostly Cloudy
5:55 AM 17.8 °F 12.5 °F 15.1 °F 89% 29.95 in 10.0 mi South 3.5 mph - N/A   Overcast
6:15 AM 18.1 °F 11.3 °F 15.8 °F 91% 29.96 in 10.0 mi SSW 4.6 mph - N/A   Mostly Cloudy
6:35 AM 18.3 °F 10.2 °F 15.6 °F 89% 29.96 in 10.0 mi South 5.8 mph - N/A   Scattered Clouds
6:55 AM 16.3 °F - 14.2 °F 91% 29.96 in 10.0 mi Calm Calm - N/A   Clear
7:15 AM 16.7 °F - 14.9 °F 93% 29.97 in 10.0 mi Calm Calm - N/A   Scattered Clouds
7:35 AM 18.0 °F - 15.6 °F 91% 29.98 in 10.0 mi Calm Calm - N/A   Overcast
7:55 AM 14.9 °F - 12.2 °F 89% 29.98 in 10.0 mi Calm Calm - N/A   Overcast
8:15 AM 19.2 °F - 17.6 °F 93% 29.98 in 10.0 mi Calm Calm - N/A   Overcast
8:35 AM 21.9 °F - 19.4 °F 90% 29.98 in 10.0 mi Calm Calm - N/A   Overcast
8:55 AM 23.0 °F - 19.4 °F 86% 29.99 in 10.0 mi Calm Calm - N/A   Overcast
9:15 AM 24.4 °F - 20.5 °F 85% 29.99 in 10.0 mi Calm Calm - N/A   Overcast
9:35 AM 25.7 °F - 21.4 °F 84% 29.99 in 10.0 mi Calm Calm - N/A   Overcast
9:55 AM 28.4 °F 24.6 °F 22.3 °F 78% 29.98 in 10.0 mi SSE 3.5 mph - N/A   Overcast
10:15 AM 29.5 °F 25.9 °F 21.7 °F 73% 29.99 in 10.0 mi SE 3.5 mph - N/A   Overcast
10:35 AM 31.1 °F 25.4 °F 21.2 °F 67% 29.98 in 10.0 mi SE 5.8 mph - N/A   Overcast
10:55 AM 32.0 °F 26.4 °F 20.8 °F 63% 29.98 in 10.0 mi ESE 5.8 mph - N/A   Overcast
11:15 AM 34.2 °F 28.2 °F 20.8 °F 58% 29.97 in 10.0 mi SSE 6.9 mph - N/A   Overcast
11:35 AM 34.5 °F 29.4 °F 19.6 °F 54% 29.96 in 10.0 mi SSE 5.8 mph - N/A   Overcast
11:55 AM 35.4 °F 28.4 °F 17.4 °F 48% 29.95 in 10.0 mi SSE 9.2 mph - N/A   Overcast
12:15 PM 35.2 °F 28.8 °F 15.8 °F 45% 29.94 in 10.0 mi SE 8.1 mph - N/A   Overcast
12:35 PM 36.0 °F 28.5 °F 12.2 °F 38% 29.94 in 10.0 mi SW 10.4 mph - N/A   Overcast
12:55 PM 36.7 °F 29.4 °F 16.9 °F 45% 29.93 in 10.0 mi WSW 10.4 mph - N/A   Overcast
1:15 PM 36.5 °F 29.7 °F 17.4 °F 46% 29.93 in 10.0 mi WSW 9.2 mph 24.2 mph N/A   Overcast
1:35 PM 35.1 °F 30.1 °F 15.1 °F 44% 29.93 in 10.0 mi West 5.8 mph 9.2 mph N/A   Overcast
1:55 PM 34.7 °F 31.8 °F 14.9 °F 44% 29.92 in 10.0 mi SSW 3.5 mph - N/A   Overcast
2:15 PM 35.1 °F 31.0 °F 18.3 °F 51% 29.92 in 10.0 mi SW 4.6 mph - N/A   Overcast
2:35 PM 35.1 °F 25.5 °F 20.1 °F 55% 29.92 in 10.0 mi West 15.0 mph - N/A   Overcast
2:55 PM 34.0 °F 29.8 °F 21.6 °F 60% 29.92 in 7.0 mi WNW 4.6 mph - N/A Snow Light Snow
3:55 PM 33.1 °F 24.9 °F 23.9 °F 69% 29.93 in 7.0 mi North 10.4 mph - N/A Snow Light Snow
4:15 PM 32.0 °F 22.5 °F 24.8 °F 75% 29.94 in 10.0 mi North 12.7 mph - N/A   Overcast
4:35 PM 31.8 °F 22.3 °F 24.3 °F 74% 29.94 in 10.0 mi North 12.7 mph 18.4 mph N/A   Overcast
4:55 PM 29.5 °F 19.9 °F 27.3 °F 92% 29.95 in 0.5 mi NNW 11.5 mph - N/A Snow Snow
5:15 PM 28.9 °F 20.4 °F 27.5 °F 94% 29.96 in 1.5 mi North 9.2 mph - N/A Snow Light Snow
5:35 PM 28.4 °F 21.2 °F 26.6 °F 93% 29.96 in 1.8 mi NNW 6.9 mph - N/A Snow Light Snow
5:55 PM 28.2 °F 23.1 °F 26.6 °F 94% 29.96 in 4.0 mi NNW 4.6 mph - N/A Snow Light Snow
6:15 PM 28.0 °F 24.2 °F 26.6 °F 94% 29.97 in 10.0 mi NNW 3.5 mph - N/A   Overcast
6:35 PM 27.7 °F 22.4 °F 26.2 °F 94% 29.97 in 10.0 mi NNW 4.6 mph - N/A   Overcast
6:55 PM 27.1 °F 20.7 °F 25.7 °F 94% 29.98 in 10.0 mi NW 5.8 mph - N/A   Overcast
7:15 PM 27.3 °F 22.0 °F 25.7 °F 94% 29.98 in 10.0 mi NW 4.6 mph - N/A   Overcast
7:35 PM 27.3 °F 20.9 °F 25.7 °F 94% 29.98 in 10.0 mi NNW 5.8 mph - N/A   Overcast
7:55 PM 26.6 °F 21.2 °F 25.0 °F 94% 29.98 in 10.0 mi WNW 4.6 mph - N/A   Overcast
8:15 PM 25.3 °F 18.5 °F 23.9 °F 94% 29.98 in 10.0 mi WNW 5.8 mph - N/A   Overcast
8:35 PM 23.9 °F 16.8 °F 22.3 °F 94% 29.98 in 10.0 mi West 5.8 mph - N/A   Mostly Cloudy
8:55 PM 24.6 °F 17.7 °F 21.7 °F 89% 29.98 in 10.0 mi WNW 5.8 mph - N/A   Clear
9:15 PM 23.2 °F 17.2 °F 20.3 °F 89% 29.98 in 10.0 mi NW 4.6 mph - N/A   Scattered Clouds
9:35 PM 22.1 °F 15.9 °F 19.4 °F 89% 29.98 in 10.0 mi NNW 4.6 mph - N/A   Scattered Clouds
9:55 PM 22.6 °F 15.3 °F 19.8 °F 89% 29.98 in 10.0 mi NNW 5.8 mph - N/A   Mostly Cloudy
10:15 PM 24.1 °F 12.5 °F 19.6 °F 83% 29.98 in 10.0 mi NW 12.7 mph - N/A   Mostly Cloudy
10:35 PM 24.3 °F 13.3 °F 19.4 °F 82% 29.98 in 10.0 mi NW 11.5 mph - N/A   Mostly Cloudy
10:55 PM 24.8 °F 12.9 °F 19.4 °F 80% 29.98 in 10.0 mi NW 13.8 mph - N/A   Overcast
11:15 PM 24.4 °F 12.4 °F 19.2 °F 81% 29.98 in 10.0 mi NW 13.8 mph - N/A   Overcast
11:35 PM 24.4 °F 13.5 °F 19.6 °F 82% 29.99 in 10.0 mi NW 11.5 mph - N/A   Overcast
11:55 PM 23.9 °F 13.5 °F 19.4 °F 83% 30.00 in 10.0 mi NW 10.4 mph - N/A   Overcast